Tracking 30918 objects as of 2-Jul-2025
HD Live streaming from Space Station
objects crossing your sky now

SL-12 R/B(2)

Track SL-12 R/B(2) now!


NORAD ID: 28240
Int'l Code: 2004-015D
Perigee: 35,608.7 km
Apogee: 35,735.2 km
Inclination: 13.0 °
Period: 1,429.9 minutes
Semi major axis: 42042 km
RCS: 1.2715 m2 (large)
Launch date: April 26, 2004
Source: Commonwealth of Independent States (former USSR) (CIS)
Launch site: TYURATAM MISSILE AND SPACE COMPLEX (TTMTR)

Note: This is a ROCKET BODY
Your satellite tracking list
FENGYUN 1C DEB
Track 1 satellite(s)




NASA's NSSDC Master Catalog

Two Line Element Set (TLE):
1 28240U 04015D   25182.88136521 -.00000182  00000-0  00000-0 0  9990
2 28240  13.0159  16.9409 0015044 323.4716  41.3949  1.00707681 77886
Source of the keplerian elements: AFSPC